TimeCST,TemperatureF,Dew PointF,Humidity,Sea Level PressureIn,VisibilityMPH,Wind Direction,Wind SpeedMPH,Gust SpeedMPH,PrecipitationIn,Events,Conditions,WindDirDegrees,DateUTC
12:15 AM,7.2,0.9,75,29.95,10.0,WSW,5.8,-,N/A,,Overcast,240,2013-02-03 06:15:00
12:35 AM,7.2,0.9,75,29.94,10.0,SW,5.8,-,N/A,,Overcast,230,2013-02-03 06:35:00
12:55 AM,7.2,1.0,76,29.94,10.0,WSW,5.8,-,N/A,,Overcast,250,2013-02-03 06:55:00
1:15 AM,7.5,1.4,76,29.95,10.0,West,8.1,-,N/A,,Overcast,270,2013-02-03 07:15:00
1:35 AM,7.7,1.0,74,29.94,10.0,West,6.9,-,N/A,,Overcast,260,2013-02-03 07:35:00
1:55 AM,7.9,1.0,74,29.94,10.0,West,6.9,-,N/A,,Overcast,260,2013-02-03 07:55:00
2:15 AM,8.2,1.2,73,29.94,10.0,West,8.1,-,N/A,,Overcast,270,2013-02-03 08:15:00
2:35 AM,8.4,1.2,73,29.94,10.0,West,6.9,-,N/A,,Overcast,280,2013-02-03 08:35:00
2:55 AM,8.4,1.4,73,29.93,10.0,West,9.2,-,N/A,,Overcast,270,2013-02-03 08:55:00
3:15 AM,8.4,1.9,75,29.94,10.0,West,8.1,-,N/A,,Overcast,280,2013-02-03 09:15:00
3:55 AM,8.2,0.9,72,29.94,10.0,West,10.4,-,N/A,,Overcast,280,2013-02-03 09:55:00
4:15 AM,8.1,0.5,71,29.94,10.0,WNW,15.0,-,N/A,,Overcast,300,2013-02-03 10:15:00
4:35 AM,8.1,0.3,71,29.96,10.0,WNW,16.1,19.6,N/A,,Overcast,300,2013-02-03 10:35:00
4:55 AM,7.5,-0.9,68,29.96,10.0,NW,15.0,-,N/A,,Overcast,310,2013-02-03 10:55:00
5:15 AM,6.4,-1.7,69,29.97,10.0,WNW,17.3,21.9,N/A,,Mostly Cloudy,300,2013-02-03 11:15:00
5:35 AM,5.7,-2.2,70,29.96,10.0,NW,16.1,-,N/A,,Scattered Clouds,310,2013-02-03 11:35:00
5:55 AM,5.0,-2.4,72,29.97,10.0,WNW,15.0,-,N/A,,Clear,300,2013-02-03 11:55:00
6:15 AM,4.8,-3.1,70,29.98,10.0,WNW,13.8,19.6,N/A,,Clear,300,2013-02-03 12:15:00
6:35 AM,4.5,-3.3,70,29.99,10.0,WNW,16.1,21.9,N/A,,Clear,300,2013-02-03 12:35:00
6:55 AM,4.1,-3.5,71,29.99,10.0,NW,15.0,-,N/A,,Clear,310,2013-02-03 12:55:00
7:15 AM,3.6,-4.0,71,29.99,10.0,NW,15.0,-,N/A,,Clear,320,2013-02-03 13:15:00
7:35 AM,3.4,-4.4,70,29.99,10.0,NW,12.7,17.3,N/A,,Clear,320,2013-02-03 13:35:00
7:55 AM,3.2,-4.9,69,30.00,10.0,NW,6.9,-,N/A,,Clear,310,2013-02-03 13:55:00
8:15 AM,3.6,-4.9,68,30.02,10.0,NW,10.4,-,N/A,,Clear,310,2013-02-03 14:15:00
8:35 AM,3.9,-5.6,65,30.03,10.0,NW,10.4,16.1,N/A,,Clear,310,2013-02-03 14:35:00
8:55 AM,3.9,-6.2,63,30.04,10.0,NW,8.1,17.3,N/A,,Scattered Clouds,320,2013-02-03 14:55:00
9:15 AM,3.9,-6.9,61,30.04,10.0,NNW,10.4,20.7,N/A,,Scattered Clouds,330,2013-02-03 15:15:00
9:35 AM,4.5,-6.7,60,30.04,10.0,NW,16.1,21.9,N/A,,Scattered Clouds,320,2013-02-03 15:35:00
9:55 AM,4.8,-6.5,60,30.04,10.0,NW,15.0,20.7,N/A,,Scattered Clouds,310,2013-02-03 15:55:00
10:15 AM,5.0,-6.5,59,30.04,10.0,NNW,12.7,-,N/A,,Clear,330,2013-02-03 16:15:00
10:35 AM,5.2,-6.9,58,30.04,10.0,NW,15.0,-,N/A,,Clear,320,2013-02-03 16:35:00
10:55 AM,5.9,-7.1,55,30.04,10.0,NW,10.4,-,N/A,,Clear,320,2013-02-03 16:55:00
11:15 AM,6.3,-6.7,55,30.04,10.0,NW,6.9,10.4,N/A,,Clear,320,2013-02-03 17:15:00
11:35 AM,6.8,-6.9,54,30.03,10.0,NW,10.4,-,N/A,,Clear,320,2013-02-03 17:35:00
11:55 AM,7.0,-7.1,53,30.03,10.0,NW,10.4,-,N/A,,Clear,320,2013-02-03 17:55:00
12:15 PM,7.7,-6.5,52,30.02,10.0,WNW,10.4,-,N/A,,Clear,290,2013-02-03 18:15:00
12:35 PM,7.3,-7.4,51,30.02,10.0,NW,9.2,16.1,N/A,,Clear,320,2013-02-03 18:35:00
12:55 PM,7.7,-7.1,51,30.01,10.0,NW,5.8,-,N/A,,Clear,310,2013-02-03 18:55:00
1:15 PM,8.2,-6.9,50,30.01,10.0,NW,6.9,-,N/A,,Clear,310,2013-02-03 19:15:00
1:35 PM,8.6,-6.7,50,30.01,10.0,NW,8.1,16.1,N/A,,Clear,310,2013-02-03 19:35:00
1:55 PM,9.3,-6.3,49,30.01,10.0,WNW,9.2,-,N/A,,Clear,300,2013-02-03 19:55:00
2:15 PM,9.7,-6.5,48,30.00,10.0,WNW,9.2,-,N/A,,Clear,300,2013-02-03 20:15:00
2:35 PM,10.0,-6.7,47,29.99,10.0,NNW,8.1,-,N/A,,Clear,330,2013-02-03 20:35:00
2:55 PM,10.8,-6.3,46,29.99,10.0,NNW,8.1,-,N/A,,Clear,330,2013-02-03 20:55:00
3:15 PM,11.3,-6.0,46,29.99,10.0,WNW,4.6,-,N/A,,Clear,300,2013-02-03 21:15:00
3:35 PM,11.3,-6.3,45,29.99,10.0,NNW,5.8,-,N/A,,Clear,330,2013-02-03 21:35:00
3:55 PM,11.3,-6.0,46,29.99,10.0,NNW,5.8,-,N/A,,Clear,330,2013-02-03 21:55:00
4:15 PM,11.3,-6.3,45,29.99,10.0,NNW,3.5,-,N/A,,Clear,340,2013-02-03 22:15:00
4:35 PM,10.4,-5.8,48,29.98,10.0,NNW,4.6,-,N/A,,Clear,330,2013-02-03 22:35:00
4:55 PM,9.9,-6.7,47,29.98,10.0,NNW,5.8,-,N/A,,Clear,340,2013-02-03 22:55:00
5:15 PM,9.0,-6.7,49,29.98,10.0,North,3.5,-,N/A,,Clear,360,2013-02-03 23:15:00
5:35 PM,7.7,-6.9,52,29.99,10.0,North,4.6,-,N/A,,Clear,350,2013-02-03 23:35:00
5:55 PM,6.8,-6.9,54,29.99,10.0,North,3.5,-,N/A,,Scattered Clouds,350,2013-02-03 23:55:00
6:15 PM,6.1,-7.2,54,29.99,10.0,North,4.6,-,N/A,,Clear,360,2013-02-04 00:15:00
6:35 PM,6.3,-7.8,53,30.00,10.0,North,5.8,-,N/A,,Clear,350,2013-02-04 00:35:00
6:55 PM,5.9,-8.5,52,30.00,10.0,North,4.6,-,N/A,,Clear,350,2013-02-04 00:55:00
7:15 PM,5.4,-8.5,53,30.00,10.0,Calm,Calm,-,N/A,,Clear,0,2013-02-04 01:15:00
7:35 PM,1.9,-9.2,60,30.01,10.0,Calm,Calm,-,N/A,,Clear,0,2013-02-04 01:35:00
7:55 PM,3.2,-7.8,60,30.01,10.0,North,4.6,-,N/A,,Scattered Clouds,360,2013-02-04 01:55:00
8:15 PM,5.2,-7.4,56,30.01,10.0,North,4.6,-,N/A,,Scattered Clouds,350,2013-02-04 02:15:00
8:35 PM,5.2,-7.6,56,30.01,10.0,North,3.5,-,N/A,,Clear,360,2013-02-04 02:35:00
8:55 PM,1.0,-9.2,62,30.01,10.0,Calm,Calm,-,N/A,,Clear,0,2013-02-04 02:55:00
9:15 PM,1.2,-7.8,66,30.01,10.0,Calm,Calm,-,N/A,,Clear,0,2013-02-04 03:15:00
9:35 PM,2.8,-7.6,62,30.01,10.0,NW,3.5,-,N/A,,Clear,320,2013-02-04 03:35:00
9:55 PM,3.6,-7.8,59,30.01,10.0,NNW,3.5,-,N/A,,Clear,330,2013-02-04 03:55:00
10:15 PM,0.7,-8.1,66,30.01,10.0,South,3.5,-,N/A,,Scattered Clouds,180,2013-02-04 04:15:00
10:35 PM,0.3,-7.1,71,30.01,10.0,Calm,Calm,-,N/A,,Scattered Clouds,0,2013-02-04 04:35:00
10:55 PM,1.6,-7.1,67,30.02,10.0,WNW,3.5,-,N/A,,Scattered Clouds,290,2013-02-04 04:55:00
11:15 PM,1.9,-8.7,61,30.02,10.0,Calm,Calm,-,N/A,,Clear,0,2013-02-04 05:15:00
11:35 PM,-2.0,-8.1,75,30.02,10.0,Calm,Calm,-,N/A,,Clear,0,2013-02-04 05:35:00
11:55 PM,0.3,-7.8,69,30.03,10.0,North,3.5,-,N/A,,Clear,350,2013-02-04 05:55:00